Piney Island, NC

12:57 PM EDT on August 18, 2017 (GMT -0400)
Piney Island

Weather History for KNBT - February, 2013

Change the Weather History Date:

Thursday, February 28, 2013

  Actual Average (KMRH) Record (KMRH)
Temperature  
Mean Temperature 50 °F -  
Max Temperature 55 °F 59 °F 76 °F (1954)
Min Temperature 46 °F 36 °F 20 °F (1968)
Degree Days  
Heating Degree Days 14    
Moisture  
Dew Point 38 °F    
Average Humidity 64    
Maximum Humidity 83    
Minimum Humidity 47    
Precipitation  
Precipitation 0.00 in - - ()
Sea Level Pressure  
Sea Level Pressure 29.76 in    
Wind  
Wind Speed 10 mph (West)    
Max Wind Speed 16 mph    
Max Gust Speed 22 mph    
Visibility 10 miles    
Events      
Averages and records for this station are not official NWS values.
T = Trace of Precipitation, MM = Missing Value Source: NWS Daily Summary

Daily Weather History Graph

Daily Weather History Graph

Search for Another Location

Airport or City:

Trip Planner

Search our weather history database for the weather conditions in past years. The results will help you decide how hot, cold, wet, or windy it might be!

Date:

Astronomy

Feb. 28, 2013 Rise Set
Actual Time 6:36 AM EST 6:00 PM EST
Civil Twilight 6:10 AM EST 6:26 PM EST
Nautical Twilight 5:41 AM EST 6:55 PM EST
Astronomical Twilight 5:12 AM EST 7:24 PM EST
Moon 9:15 PM EST (2/28) 7:53 AM EST (2/28)
Length of Visible Light 12h 15m
Length of Day
11h 24m
Waning Gibbous, 91% of the Moon is Illuminated
Feb 28
Waning Gibbous
Mar 4
Last Quarter
Mar 11
New
Mar 19
First Quarter
Mar 27
Full

Hourly Weather History & Observations

Time (EST) Temp. Windchill Dew Point Humidity Pressure Visibility Wind Dir Wind Speed Gust Speed Precip Events Conditions
12:56 AM 48.0 °F - 43.0 °F 83% 29.75 in 10.0 mi SW 6.9 mph - N/A   Clear
1:56 AM 48.0 °F - 43.0 °F 83% 29.74 in 10.0 mi SW 8.1 mph - N/A   Clear
2:56 AM 48.0 °F - 43.0 °F 83% 29.73 in 10.0 mi SW 9.2 mph - N/A   Clear
3:56 AM 48.0 °F - 42.1 °F 80% 29.72 in 10.0 mi SW 9.2 mph - N/A   Clear
4:56 AM 48.0 °F - 42.1 °F 80% 29.73 in 10.0 mi WSW 9.2 mph - N/A   Clear
5:56 AM 48.0 °F - 42.1 °F 80% 29.75 in 10.0 mi West 11.5 mph - N/A   Clear
6:56 AM 46.9 °F - 42.1 °F 83% 29.76 in 10.0 mi West 9.2 mph - N/A   Clear
7:56 AM 48.9 °F - 42.1 °F 77% 29.77 in 10.0 mi West 12.7 mph - N/A   Clear
8:56 AM 50.0 °F - 42.1 °F 74% 29.77 in 10.0 mi West 12.7 mph - N/A   Clear
9:56 AM 53.1 °F - 39.9 °F 61% 29.77 in 10.0 mi West 12.7 mph - N/A   Partly Cloudy
10:56 AM 54.0 °F - 36.0 °F 51% 29.75 in 10.0 mi West 9.2 mph - N/A   Scattered Clouds
11:56 AM 55.0 °F - 36.0 °F 49% 29.74 in 10.0 mi West 10.4 mph - N/A   Mostly Cloudy
12:56 PM 55.0 °F - 37.9 °F 53% 29.71 in 10.0 mi NW 12.7 mph - N/A   Overcast
1:56 PM 54.0 °F - 35.1 °F 49% 29.70 in 10.0 mi WNW 11.5 mph 18.4 mph N/A   Overcast
2:56 PM 53.1 °F - 34.0 °F 48% 29.71 in 10.0 mi NW 15.0 mph - N/A   Overcast
3:56 PM 52.0 °F - 33.1 °F 49% 29.73 in 10.0 mi NW 15.0 mph - N/A   Unknown
4:56 PM 53.1 °F - 33.1 °F 47% 29.74 in 10.0 mi West 16.1 mph 21.9 mph N/A   Scattered Clouds
5:56 PM 50.0 °F - 34.0 °F 54% 29.77 in 10.0 mi West 13.8 mph - N/A   Overcast
6:56 PM 50.0 °F - 34.0 °F 54% 29.80 in 10.0 mi West 11.5 mph - N/A   Overcast
7:56 PM 48.0 °F - 35.1 °F 61% 29.81 in 10.0 mi WNW 8.1 mph - N/A   Scattered Clouds
8:56 PM 46.0 °F 41.9 °F 35.1 °F 66% 29.83 in 10.0 mi West 8.1 mph - N/A   Clear
9:56 PM 46.9 °F - 33.1 °F 59% 29.83 in 10.0 mi West 10.4 mph - N/A   Clear
10:56 PM 46.9 °F - 33.1 °F 59% 29.83 in 10.0 mi West 10.4 mph - N/A   Clear
11:56 PM 46.9 °F - 32.0 °F 56% 29.83 in 10.0 mi WNW 12.7 mph - N/A   Clear